sat.trackr.live / text

‹ back to catalog

STARLINK-34530

NORAD 64491 · 2025-133V

PAYLOAD ACTIVE UNKNOWN

§ Identity

Operator
Country
US
Launch date
2025-06-23
Launch site
AFETR
Launch vehicle
Mass (kg)
RCS (m²)

Purposes: comms

External: N2YO · Heavens-Above · Gunter

§ Orbital elements

Epoch: 2026-05-25T04:37:06.739104Z

Period
93.78 min
Inclination
53.1603°
Eccentricity
0.0000980
Mean motion
15.35431124 rev/d
Perigee alt
459.0 km
Apogee alt
460.3 km
Semi-major
6,837.8 km
B*
7.4991e-4
RAAN
119.1535°
Arg perigee
66.4520°
Mean anomaly
293.6586°
Rev number
5,290

§ Raw data

STARLINK-345301 64491U 25133V   26145.19243911  .00025893  00000+0  74991-3 0  99952 64491  53.1603 119.1535 0000980  66.4520 293.6586 15.35431124 52903

JSON: /api/v1/satellites/64491 · /tle

For live sub-satellite position, see the globe view (requires WebGL).

§ Visibility from observer

Set your observer location to see the next 7 days of passes ≥ 10°. The values pass through the URL so the page stays shareable.

No JS? Fill the form by hand. The geolocation button needs JavaScript.